Livermore, CA

10:55 AM PST on November 18, 2017 (GMT -0800)
Livermore Municipal

Weather History for KLVK - April, 2014

Change the Weather History Date:

Friday, April 25, 2014

  Actual Average Record
Temperature  
Mean Temperature 54 °F 59 °F  
Max Temperature 58 °F 71 °F 92 °F (2004)
Min Temperature 49 °F 46 °F 32 °F (1964)
Degree Days  
Heating Degree Days 11 7  
Month to date heating degree days 112 228  
Since 1 July heating degree days 1836 2592  
Cooling Degree Days 0 0  
Month to date cooling degree days 10 0  
Year to date cooling degree days 10 1  
Growing Degree Days 2 (Base 50)    
Moisture  
Dew Point 49 °F    
Average Humidity 80    
Maximum Humidity 93    
Minimum Humidity 66    
Precipitation  
Precipitation 0.32 in 0.02 in 0.59 in (1994)
Month to date precipitation 0.83 0.89  
Year to date precipitation 4.81 9.13  
Since 1 July precipitation 7.19  
Sea Level Pressure  
Sea Level Pressure 29.86 in    
Wind  
Wind Speed 8 mph (SW)    
Max Wind Speed 24 mph    
Max Gust Speed 29 mph    
Visibility 10 miles    
Events Rain    
T = Trace of Precipitation, MM = Missing Value Source: NWS Daily Summary

Daily Weather History Graph

Daily Weather History Graph

Search for Another Location

Airport or City:

Trip Planner

Search our weather history database for the weather conditions in past years. The results will help you decide how hot, cold, wet, or windy it might be!

Date:

Astronomy

Apr. 25, 2014 Rise Set
Actual Time 6:18 AM PDT 7:52 PM PDT
Civil Twilight 5:51 AM PDT 8:19 PM PDT
Nautical Twilight 5:17 AM PDT 8:53 PM PDT
Astronomical Twilight 4:42 AM PDT 9:28 PM PDT
Moon 4:05 AM PDT (4/25) 4:24 PM PDT (4/25)
Length of Visible Light 14h 28m
Length of Day
13h 33m
Waning Crescent, 14% of the Moon is Illuminated
Apr 25
Waning Crescent
Apr 28
New
May 6
First Quarter
May 14
Full
May 21
Last Quarter

Hourly Weather History & Observations

Time (PDT) Temp. Dew Point Humidity Pressure Visibility Wind Dir Wind Speed Gust Speed Precip Events Conditions
12:23 AM 57.2 °F 53.6 °F 88% 29.97 in 10.0 mi SW 4.6 mph - 0.00 in   Overcast
12:53 AM 57.9 °F 54.0 °F 87% 29.96 in 10.0 mi Calm Calm - 0.00 in   Overcast
1:53 AM 57.9 °F 53.1 °F 84% 29.94 in 10.0 mi SSW 3.5 mph - 0.01 in   Overcast
2:25 AM 57.2 °F 53.6 °F 88% 29.93 in 10.0 mi SSW 4.6 mph - N/A   Overcast
2:53 AM 57.0 °F 53.1 °F 87% 29.93 in 10.0 mi SSW 8.1 mph - N/A   Overcast
3:53 AM 57.0 °F 52.0 °F 83% 29.91 in 10.0 mi South 3.5 mph - 0.00 in   Overcast
4:19 AM 57.2 °F 51.8 °F 82% 29.92 in 10.0 mi SSW 6.9 mph - 0.00 in Rain Light Rain
4:50 AM 57.2 °F 51.8 °F 82% 29.91 in 10.0 mi South 4.6 mph - 0.00 in   Overcast
4:53 AM 57.0 °F 52.0 °F 83% 29.90 in 10.0 mi Calm Calm - 0.00 in   Overcast
5:53 AM 55.9 °F 48.9 °F 77% 29.89 in 10.0 mi West 3.5 mph - 0.00 in Rain Light Rain
6:07 AM 55.4 °F 48.2 °F 77% 29.89 in 10.0 mi Calm Calm - 0.00 in Rain Light Rain
6:35 AM 55.4 °F 51.8 °F 88% 29.89 in 10.0 mi South 3.5 mph - 0.01 in Rain Light Rain
6:43 AM 55.4 °F 51.8 °F 88% 29.88 in 10.0 mi South 4.6 mph - 0.01 in Rain Light Rain
6:50 AM 55.4 °F 51.8 °F 88% 29.88 in 9.0 mi South 3.5 mph - 0.01 in Rain Light Rain
6:53 AM 55.0 °F 51.1 °F 86% 29.88 in 8.0 mi South 3.5 mph - 0.01 in Rain Light Rain
7:53 AM 55.0 °F 51.1 °F 86% 29.88 in 7.0 mi South 5.8 mph - 0.03 in Rain Light Rain
8:53 AM 55.0 °F 51.1 °F 86% 29.88 in 10.0 mi SSW 5.8 mph - 0.02 in Rain Light Rain
9:53 AM 54.0 °F 48.9 °F 83% 29.88 in 10.0 mi West 8.1 mph - 0.04 in Rain Light Rain
10:53 AM 55.9 °F 48.9 °F 77% 29.86 in 10.0 mi South 9.2 mph - 0.01 in   Mostly Cloudy
11:53 AM 57.0 °F 48.9 °F 74% 29.85 in 10.0 mi SSW 8.1 mph - N/A   Overcast
12:53 PM 55.9 °F 48.9 °F 77% 29.83 in 9.0 mi SSW 9.2 mph - 0.00 in Rain Light Rain
1:53 PM 57.9 °F 48.0 °F 70% 29.81 in 10.0 mi SW 6.9 mph - 0.00 in   Overcast
2:24 PM 51.8 °F 48.2 °F 88% 29.82 in 7.0 mi West 20.7 mph 24.2 mph 0.01 in Rain Light Rain
2:44 PM 51.8 °F 48.2 °F 88% 29.82 in 6.0 mi WNW 9.2 mph - 0.06 in Rain Light Rain
2:53 PM 51.1 °F 48.0 °F 89% 29.82 in 6.0 mi West 11.5 mph - 0.07 in Rain Light Rain
3:53 PM 53.1 °F 48.0 °F 83% 29.79 in 10.0 mi West 11.5 mph - 0.03 in   Overcast
4:53 PM 52.0 °F 46.9 °F 83% 29.78 in 10.0 mi WSW 15.0 mph - 0.03 in   Overcast
5:53 PM 55.0 °F 44.1 °F 67% 29.78 in 10.0 mi West 16.1 mph - N/A   Mostly Cloudy
6:00 PM 53.6 °F 42.8 °F 67% 29.79 in 10.0 mi WSW 19.6 mph 25.3 mph N/A   Scattered Clouds
6:53 PM 52.0 °F 43.0 °F 71% 29.80 in 10.0 mi West 16.1 mph - N/A   Mostly Cloudy
7:53 PM 51.1 °F 44.1 °F 77% 29.80 in 10.0 mi WSW 13.8 mph - N/A   Mostly Cloudy
9:53 PM 48.9 °F 46.9 °F 93% 29.83 in 10.0 mi West 11.5 mph - 0.03 in Rain Light Rain
10:53 PM 48.9 °F 46.9 °F 93% 29.83 in 10.0 mi West 5.8 mph - 0.04 in Rain Light Rain
11:53 PM 48.9 °F 46.0 °F 90% 29.84 in 10.0 mi WSW 3.5 mph - 0.00 in   Overcast